Skip Page Navigation
NASA JPL Caltech
NASA Logo - Jet Propulsion Laboratory + View the NASA Portal
+ Center for Near-Earth Object Studies
JPL Home Earth Solar System Stars & Galaxies Technology
JPL Solar System Dynamics
BODIES ORBITS EPHEMERIDES TOOLS PHYSICAL DATA DISCOVERY FAQ SITE MAP
JPL Small-Body Database Browser
Search: [ help ]  
118095 (2007 T-3)
Classification: Main-belt Asteroid          SPK-ID: 2118095
Ephemeris | Orbit Diagram | Orbital Elements | Mission Design | Physical Parameters | Discovery Circumstances | Close-Approach Data ]

[ show orbit diagram ]
Orbital Elements at Epoch 2459200.5 (2020-Dec-17.0) TDB
Reference: JPL 19 (heliocentric ecliptic J2000)
 Element Value Uncertainty (1-sigma)   Units 
e .3153409105043504 5.1487e-08  
a 2.57857688597768 1.3574e-08 au
q 1.765446102948006 1.3839e-07 au
i 5.194562697485142 5.0426e-06 deg
node 348.4468444562823 3.7991e-05 deg
peri 355.7722103277054 3.8592e-05 deg
M 177.0419722513197 8.9799e-06 deg
tp 2458456.723772824790
(2018-Dec-04.22377282)
3.3078e-05 TDB
period 1512.406568782333
4.14
1.1942e-05
3.27e-08
d
yr
n .238031232758955 1.8795e-09 deg/d
Q 3.391707669007354 1.7854e-08 au
  Orbit Determination Parameters
   # obs. used (total)      719  
   data-arc span      15455 days (42.31 yr)  
   first obs. used      1977-10-11  
   last obs. used      2020-02-03  
   planetary ephem.      DE431  
   SB-pert. ephem.      SB431-N16  
   condition code      0  
   norm. resid. RMS      .53521  
   source      ORB  
   producer      Otto Matic  
   solution date      2020-Feb-24 05:54:06  

Additional Information
 Earth MOID = .756241 au 
 Jupiter MOID = 2.03023 au 
 T_jup = 3.349 
[ show covariance matrix ]

Ephemeris | Orbit Diagram | Orbital Elements | Mission Design | Physical Parameters | Discovery Circumstances | Close-Approach Data ]

Physical Parameter Table
Parameter Symbol Value Units Sigma Reference Notes
absolute magnitude H 15.54   n/a E2021B55  

118095 (2007 T-3)          Discovered 1977-Oct-16 by van Houten, C. J., van Houten-Groeneveld, I., Gehrels, T. at Palomar
Reference: 20051019/Numbers.arcLast Updated: 2005-10-26

[ show close-approach data ]
Alternate Designations
 2007 T-3 = 2002 PZ88 
Ephemeris | Orbit Diagram | Orbital Elements | Mission Design | Physical Parameters | Discovery Circumstances | Close-Approach Data ]
ABOUT SSD CREDITS/AWARDS PRIVACY/COPYRIGHT GLOSSARY LINKS
FirstGov 2021-Apr-10 21:31 UT
(server date/time)  
NASA Home Page
Site Manager:   Ryan S. Park
Webmaster  Alan B. Chamberlin